Terminal Aerodrome Forecast
Issued by NWS

Home | Current Version | Previous Version | Graphics & Text | Print | Product List | Glossary On
Versions: 1 2 3 4 5 6 7 8 9 10 11 12 13 14 15 16 17 18 19
000
FTUS43 KMPX 201346 AAB
TAFRNH
TAF AMD
KRNH 201346Z 2014/2112 32003KT P6SM BKN300
     FM210200 VRB02KT P6SM SCT250
     FM210700 00000KT 4SM BR SCT250=

USA.gov is the U.S. government's official web portal to all federal, state and local government web resources and services.